Retour au catalogue

SDX02

ActifScienceVLEO
NORAD 62460·PAYLOAD·🇮🇳 India

Lancé Dec 30, 2024 depuis Satish Dhawan Space Centre

Loading…

Prochains Passages (prochaines 24 heures)

TLE

FraisSource: Space-Track

Époque: Sep 14, 2026, 14:01 UTC

1 62460U 24253B   26257.58470211  .00191116  24425-4  58316-3 0  9990
2 62460  54.9903 280.5728 0009303  46.4912 313.6911 15.91598878 96643

Suivez SDX02 en temps réel avec AllMySat

Download on the App Store